Tracking 19847 objects as of 16-Sep-2019
HD Live streaming from Space Station
objects crossing your sky now

FENGYUN 1C DEB

Track FENGYUN 1C DEB now!
10-day predictions


NORAD ID: 33664
Int'l Code: 1999-025DEZ
Perigee: 778.0 km
Apogee: 1,016.7 km
Inclination: 98.7 °
Period: 102.8 minutes
Semi major axis: 7268 km
RCS: 0.0059 m2 (small)
Launch date: May 10, 1999
Source: People's Republic of China (PRC)
Launch site: Taiyaun Space Center, China (TSC)

Note: This is SATELLITE DEBRIS
aabbcc
Your satellite tracking list
Your tracking list is empty




NASA's NSSDC Master Catalog

Two Line Element Set (TLE):
1 33664U 99025DEZ 19258.45114101 -.00000095  00000-0 -30614-4 0  9993
2 33664  98.7190 129.5405 0164163 309.1184  49.5483 14.01031251587877
Source of the keplerian elements: AFSPC